Regional Weather Roundup
Issued by NWS

Home | Current Version | Previous Version | Graphics & Text | Print | Product List | Glossary Off
Versions: 1 2 3 4 5 6 7 8 9 10 11 12 13 14 15 16 17 18 19 20 21 22 23 24 25 26 27 28 29 30 31 32 33 34 35 36 37 38 39 40 41 42 43 44 45 46 47 48 49 50

000
ASUS43 KLSX 010407
RWRMO

WEATHER SUMMARY FOR MISSOURI
NATIONAL WEATHER SERVICE SPRINGFIELD MO
1100 PM CDT TUE MAR 31 2015

NOTE: "FAIR" INDICATES FEW OR NO CLOUDS BELOW 12,000 FEET WITH NO
       SIGNIFICANT WEATHER AND/OR OBSTRUCTIONS TO VISIBILITY.
       CURRENT SKY AND/OR WEATHER CONDITIONS ARE NOT AVAILABLE FOR
       CHILLICOTHE AND FARMINGTON.

MOZ001>031-035>038-043-044-053-054-010500-
...NORTHERN AND WESTERN MISSOURI...

CITY           SKY/WX    TMP DP  RH WIND       PRES   REMARKS
KANSAS CTY INT CLEAR     58  31  35 SE8       29.94S
KANSAS C DTWN  CLEAR     62  33  33 N3        29.93S
LEE`S SUMMIT   CLEAR     63  30  28 SE7       29.95S
ST JOSEPH      CLEAR     51  35  54 CALM      29.94R
CHILLICOTHE      N/A     52  41  66 CALM      29.97R
KIRKSVILLE     CLEAR     55  34  45 SE5       29.98R

$$
MOZ066>068-077>081-088>096-101>105-010500-
...SOUTHWEST MISSOURI...

CITY           SKY/WX    TMP DP  RH WIND       PRES   REMARKS
SPRINGFIELD    CLEAR     55  43  63 E7        29.95R
JOPLIN         CLEAR     56  51  84 CALM      29.94R

$$
MOZ032>034-039>042-045>050-055>058-069>072-010500-
...CENTRAL MISSOURI...

CITY           SKY/WX    TMP DP  RH WIND       PRES   REMARKS
COLUMBIA       CLEAR     59  33  37 E7        29.97R
JEFFERSON CITY CLEAR     51  36  56 CALM      29.97R
ROLLA          CLEAR     57  33  40 E8        29.97R
SEDALIA        CLEAR     58  30  34 E5        29.97R
WHITEMAN AFB   CLEAR     57  33  40 CALM      29.95S
WARRENSBURG    CLEAR     55  32  41 CALM      29.95S
OSAGE BEACH    CLEAR     57  30  35 E3        29.97R

$$
MOZ051-052-059>065-010500-
...EAST CENTRAL MISSOURI...

CITY           SKY/WX    TMP DP  RH WIND       PRES   REMARKS
ST LOUIS INTL  CLEAR     57  37  47 CALM      29.99S
SPIRIT OF STL  CLEAR     49  40  71 CALM      29.98R
ST CHARLES     CLEAR     51  38  60 CALM      29.98R

$$
MOZ072>076-082>087-097>100-106>115-010500-
...SOUTH CENTRAL AND SOUTHEAST MISSOURI...

CITY           SKY/WX    TMP DP  RH WIND       PRES   REMARKS
CAPE GIRARDEAU CLEAR     57  39  51 NE10      29.97R
FARMINGTON     CLEAR     54  37  54 CALM      30.03R
POPLAR BLUFF   CLEAR     53  50  89 N6        29.95S
WEST PLAINS    PTCLDY    60  42  51 E3        29.96S

$$


USA.gov is the U.S. government's official web portal to all federal, state and local government web resources and services.